Time,TemperatureF,DewpointF,PressureIn,WindDirection,WindDirectionDegrees,WindSpeedMPH,WindSpeedGustMPH,Humidity,HourlyPrecipIn,Conditions,Clouds,dailyrainin,SoftwareType,DateUTC
2013-05-17 05:53:00,43.0,41.0,29.94,SE,132,0.0,1.0,92,0.00,,,0.00,,2013-05-17 12:53:00,
2013-05-17 06:03:00,42.0,40.0,29.94,SE,132,0.0,0.0,92,0.00,,,0.00,,2013-05-17 13:03:00,
2013-05-17 06:12:00,42.0,40.0,29.94,SE,132,0.0,0.0,92,0.00,,,0.00,,2013-05-17 13:12:00,
2013-05-17 06:23:00,41.0,39.0,29.94,SE,132,0.0,0.0,92,0.00,,,0.00,,2013-05-17 13:23:00,
2013-05-17 06:33:00,41.0,39.0,29.94,SE,132,0.0,0.0,94,0.00,,,0.00,,2013-05-17 13:33:00,
2013-05-17 06:42:00,41.0,39.0,29.94,SE,132,0.0,0.0,94,0.00,,,0.00,,2013-05-17 13:42:00,
2013-05-17 06:52:00,41.0,39.0,29.94,SE,132,0.0,0.0,94,0.00,,,0.00,,2013-05-17 13:52:00,
2013-05-17 07:02:00,41.0,39.0,29.94,SE,132,0.0,0.0,94,0.00,,,0.00,,2013-05-17 14:02:00,
2013-05-17 07:12:00,41.0,39.0,29.94,SE,132,0.0,0.0,94,0.00,,,0.00,,2013-05-17 14:12:00,
2013-05-17 07:22:00,41.0,40.0,29.95,SE,132,0.0,0.0,96,0.00,,,0.00,,2013-05-17 14:22:00,
2013-05-17 07:34:00,42.0,41.0,29.96,SE,132,0.0,0.0,96,0.00,,,0.00,,2013-05-17 14:34:00,
2013-05-17 07:42:00,42.0,41.0,29.96,SE,132,0.0,0.0,96,0.00,,,0.00,,2013-05-17 14:42:00,
2013-05-17 07:53:00,43.0,42.0,29.96,SE,132,0.0,0.0,96,0.00,,,0.00,,2013-05-17 14:53:00,
2013-05-17 08:03:00,44.0,43.0,29.97,SE,132,0.0,0.0,97,0.00,,,0.00,,2013-05-17 15:03:00,
2013-05-17 08:13:00,44.0,43.0,29.97,SE,132,0.0,0.0,97,0.00,,,0.00,,2013-05-17 15:13:00,
2013-05-17 08:25:00,46.0,45.0,29.97,SE,132,0.0,0.0,96,0.00,,,0.00,,2013-05-17 15:25:00,
2013-05-17 08:37:00,47.0,45.0,29.97,WNW,299,1.0,2.0,91,0.00,,,0.00,,2013-05-17 15:37:00,
2013-05-17 08:47:00,47.0,45.0,29.97,WNW,299,1.0,2.0,91,0.00,,,0.00,,2013-05-17 15:47:00,
2013-05-17 08:56:00,49.0,45.0,29.96,NNE,13,1.0,2.0,87,0.00,,,0.00,,2013-05-17 15:56:00,
2013-05-17 09:07:00,50.0,45.0,29.96,East,92,1.0,4.0,84,0.00,,,0.00,,2013-05-17 16:07:00,
2013-05-17 09:13:00,50.0,45.0,29.96,East,92,1.0,4.0,84,0.00,,,0.00,,2013-05-17 16:13:00,
2013-05-17 09:26:00,52.0,46.0,29.97,SW,223,1.0,4.0,81,0.00,,,0.00,,2013-05-17 16:26:00,
2013-05-17 09:37:00,53.0,46.0,29.97,North,5,2.0,5.0,76,0.00,,,0.00,,2013-05-17 16:37:00,
2013-05-17 09:49:00,53.0,46.0,29.97,North,5,2.0,5.0,76,0.00,,,0.00,,2013-05-17 16:49:00,
2013-05-17 09:56:00,54.0,46.0,29.97,NNW,344,2.0,3.0,74,0.00,,,0.00,,2013-05-17 16:56:00,
2013-05-17 10:07:00,55.0,46.0,29.97,ENE,61,2.0,4.0,71,0.00,,,0.00,,2013-05-17 17:07:00,
2013-05-17 10:18:00,55.0,46.0,29.97,ENE,61,2.0,4.0,71,0.00,,,0.00,,2013-05-17 17:18:00,
2013-05-17 10:29:00,57.0,47.0,29.97,North,355,1.0,3.0,70,0.00,,,0.00,,2013-05-17 17:29:00,
2013-05-17 10:40:00,57.0,-99.9,29.97,North,355,1.0,3.0,70,0.00,,,0.00,,2013-05-17 17:40:00,
2013-05-17 10:49:00,57.0,47.0,29.97,North,355,1.0,3.0,70,0.00,,,0.00,,2013-05-17 17:49:00,
2013-05-17 11:00:00,60.0,48.0,29.97,WSW,238,1.0,3.0,64,0.00,,,0.00,,2013-05-17 18:00:00,
2013-05-17 11:08:00,62.0,47.0,29.97,SSE,159,2.0,4.0,57,0.00,,,0.00,,2013-05-17 18:08:00,
2013-05-17 11:20:00,62.0,47.0,29.97,SSE,159,2.0,4.0,57,0.00,,,0.00,,2013-05-17 18:20:00,
2013-05-17 11:30:00,63.0,47.0,29.98,NW,322,2.0,7.0,56,0.00,,,0.00,,2013-05-17 18:30:00,
2013-05-17 11:40:00,63.0,48.0,29.98,SSE,168,1.0,8.0,57,0.00,,,0.00,,2013-05-17 18:40:00,
2013-05-17 11:50:00,-999.0,-99.9,29.98,SSE,168,1.0,8.0,57,0.00,,,0.00,,2013-05-17 18:50:00,
2013-05-17 12:00:00,64.0,46.0,29.98,SE,126,2.0,5.0,52,0.00,,,0.00,,2013-05-17 19:00:00,
2013-05-17 12:07:00,67.0,44.0,29.98,WNW,289,2.0,5.0,43,0.00,,,0.00,,2013-05-17 19:07:00,
2013-05-17 12:10:00,65.0,44.0,29.98,WNW,287,2.0,5.0,47,0.00,,,0.00,,2013-05-17 19:10:00,
2013-05-17 12:20:00,65.0,44.0,29.98,WNW,287,2.0,5.0,47,0.00,,,0.00,,2013-05-17 19:20:00,
2013-05-17 12:30:00,66.0,45.0,29.98,SSE,157,3.0,7.0,46,0.00,,,0.00,,2013-05-17 19:30:00,
2013-05-17 12:40:00,67.0,44.0,29.98,WNW,289,2.0,5.0,43,0.00,,,0.00,,2013-05-17 19:40:00,
2013-05-17 12:50:00,67.0,44.0,29.98,WNW,289,2.0,5.0,43,0.00,,,0.00,,2013-05-17 19:50:00,
2013-05-17 13:00:00,67.0,-99.9,29.98,WNW,289,2.0,5.0,43,0.00,,,0.00,,2013-05-17 20:00:00,
2013-05-17 17:54:00,67.0,45.0,29.96,SSE,155,5.0,10.0,45,0.00,,,0.00,,2013-05-18 00:54:00,
2013-05-17 18:02:00,67.0,44.0,29.96,ESE,107,3.0,8.0,44,0.00,,,0.00,,2013-05-18 01:02:00,
2013-05-17 18:13:00,67.0,44.0,29.96,ESE,107,3.0,8.0,44,0.00,,,0.00,,2013-05-18 01:13:00,
2013-05-17 18:23:00,66.0,44.0,29.97,SE,142,4.0,9.0,45,0.00,,,0.00,,2013-05-18 01:23:00,
2013-05-17 18:31:00,66.0,45.0,29.97,ESE,119,4.0,10.0,46,0.00,,,0.00,,2013-05-18 01:31:00,
2013-05-17 18:42:00,66.0,45.0,29.97,ESE,119,4.0,10.0,46,0.00,,,0.00,,2013-05-18 01:42:00,
2013-05-17 18:52:00,65.0,44.0,29.97,SE,134,5.0,13.0,47,0.00,,,0.00,,2013-05-18 01:52:00,
2013-05-17 19:02:00,64.0,43.0,29.97,SE,140,3.0,11.0,47,0.00,,,0.00,,2013-05-18 02:02:00,
2013-05-17 19:11:00,64.0,43.0,29.97,SE,140,3.0,11.0,47,0.00,,,0.00,,2013-05-18 02:11:00,
2013-05-17 19:22:00,63.0,43.0,29.97,South,185,3.0,8.0,48,0.00,,,0.00,,2013-05-18 02:22:00,
2013-05-17 19:31:00,63.0,44.0,29.97,SSW,211,1.0,4.0,49,0.00,,,0.00,,2013-05-18 02:31:00,
2013-05-17 19:42:00,63.0,44.0,29.97,SSW,211,1.0,4.0,49,0.00,,,0.00,,2013-05-18 02:42:00,
2013-05-17 19:53:00,62.0,44.0,29.98,South,176,2.0,8.0,52,0.00,,,0.00,,2013-05-18 02:53:00,
2013-05-17 20:02:00,61.0,45.0,29.98,SE,140,1.0,3.0,55,0.00,,,0.00,,2013-05-18 03:02:00,
2013-05-17 20:12:00,61.0,45.0,29.98,SE,140,1.0,3.0,55,0.00,,,0.00,,2013-05-18 03:12:00,
2013-05-17 20:22:00,61.0,45.0,29.98,SE,140,1.0,3.0,55,0.00,,,0.00,,2013-05-18 03:22:00,
2013-05-17 20:32:00,61.0,45.0,29.98,SE,140,1.0,3.0,55,0.00,,,0.00,,2013-05-18 03:32:00,